Regional Weather Roundup
Issued by NWS Raleigh/Durham, NC

Home | Current Version | Previous Version | Text Only | Print | Product List | Glossary On
Versions: 1 2 3 4 5 6 7 8 9 10 11 12 13 14 15 16 17 18 19 20 21 22 23 24 25 26 27
000
ASUS42 KRAH 260710
RWRRAH
NORTH CAROLINA WEATHER ROUNDUP
NATIONAL WEATHER SERVICE RALEIGH NC
300 AM EDT THU MAY 26 2016

NOTE: "FAIR" INDICATES FEW OR NO CLOUDS BELOW 12,000 FEET WITH NO
SIGNIFICANT WEATHER AND/OR OBSTRUCTIONS TO VISIBILITY.

NCZ001-053-055-056-065-067-260800-
WESTERN NORTH CAROLINA

CITY           SKY/WX    TMP DP  RH WIND       PRES   REMARKS
ASHEVILLE      CLEAR     60  56  86 CALM      30.21F
JEFFERSON      CLOUDY    63  55  76 CALM      30.24S
MORGANTON      PTCLDY    61  60  97 CALM      30.20F
HICKORY        CLEAR     67  58  72 CALM      30.15F
RUTHERFORDTON  CLEAR     62  62 100 CALM      30.17S
MOUNT AIRY     CLOUDY    65  61  88 CALM      30.18S
BOONE          CLOUDY    59  56  91 CALM      30.25S
$$

NCZ021-022-025-041-071-084-088-260800-
CENTRAL NORTH CAROLINA

CITY           SKY/WX    TMP DP  RH WIND       PRES   REMARKS
CHARLOTTE      CLEAR     68  58  70 S5        30.16S
GREENSBORO     PTCLDY    66  59  78 SW3       30.14F
WINSTON-SALEM  PTCLDY    67  58  72 CALM      30.16S
RALEIGH-DURHAM MOCLDY    68  61  78 SW7       30.15S
FORT BRAGG     CLEAR     70  61  75 SW5       30.15F
FAYETTEVILLE   CLEAR     67  62  84 S6        30.16F
BURLINGTON     CLEAR     60  58  92 CALM      30.14F
LAURINBURG     CLEAR     67  61  81 S5        30.17F
$$

NCZ011-015-027-028-043-044-047-080-103-260800-
NORTHEASTERN NORTH CAROLINA

CITY           SKY/WX    TMP DP  RH WIND       PRES   REMARKS
ROCKY MT-WILSO CLEAR     67  61  81 S6        30.15F
GREENVILLE     PTCLDY    68  61  77 SW6       30.17F
WASHINGTON     PTCLDY    66  61  83 S5        30.17F
ELIZABETH CITY CLEAR     67  60  78 SW8       30.16F
MANTEO         NOT AVBL
CAPE HATTERAS  CLEAR     70  66  87 SW5       30.20S
$$

NCZ078-087-090-091-093-098-101-260800-
SOUTHEASTERN NORTH CAROLINA

CITY           SKY/WX    TMP DP  RH WIND       PRES   REMARKS
LUMBERTON      CLEAR     68  63  84 S5        30.16F
GOLDSBORO      CLEAR     69  67  94 S6        30.15F
KINSTON        PTCLDY    69  62  78 S6        30.17F
KENANSVILLE    MOCLDY    65  63  91 CALM      30.18F
NEW BERN       PTCLDY    67  64  90 S5        30.19F
CHERRY POINT   CLOUDY    67  64  90 S6        30.20F
BEAUFORT       PTCLDY    71  67  87 S7        30.19F
JACKSONVILLE   PTCLDY    68  64  87 CALM      30.18F
WILMINGTON     CLEAR     69  66  90 S5        30.18F
$$





USA.gov is the U.S. government's official web portal to all federal, state and local government web resources and services.